W5MAI Weather Reports


time (UTC)temp
F
wind
direction
speed
knots
gust
knots
rain 1hr
in
rain 24hr
in
rain mn
in
humidity
%
barometer
mb
20260510153402 80 115 3.5 8.7 0.00 0.00 0.00 75 1015.4
20260510152333 79 94 3.5 7.0 0.00 0.00 0.00 76 1015.3
20260510150327 79 139 1.7 6.1 0.00 0.00 0.00 77 1015.2
20260510145405 78 173 4.3 7.0 0.00 0.00 0.00 76 1015.1
20260510144339 78 173 3.5 7.0 0.00 0.00 0.00 78 1014.9
20260510143409 78 150 3.5 7.0 0.00 0.00 0.00 78 1014.8
20260510142339 77 181 4.3 7.0 0.00 0.00 0.00 79 1014.7
20260510141414 77 197 3.5 6.1 0.00 0.00 0.00 80 1014.6
20260510140333 76 232 3.5 7.8 0.00 0.00 0.00 80 1014.6
20260510135400 76 181 2.6 7.0 0.00 0.00 0.00 81 1014.5
20260510134420 75 185 1.7 8.7 0.00 0.00 0.00 82 1014.4
20260510131352 74 199 0.0 0.9 0.00 0.00 0.00 81 1014.1
20260510130414 73 199 0.0 0.0 0.00 0.00 0.00 83 1014.0
20260510125344 72 199 0.0 0.0 0.00 0.00 0.00 85 1013.8
20260510124411 70 199 0.0 0.9 0.00 0.00 0.00 87 1013.7
20260510123336 69 199 0.0 0.9 0.00 0.00 0.00 89 1013.7
20260510122402 68 196 0.0 2.6 0.00 0.00 0.00 89 1013.4
20260510121418 67 173 0.9 2.6 0.00 0.00 0.00 89 1013.3
20260510120330 67 183 0.9 3.5 0.00 0.00 0.00 89 1013.2
20260510115349 67 192 1.7 3.5 0.00 0.00 0.00 88 1013.3
20260510114417 67 195 1.7 3.5 0.00 0.00 0.00 88 1013.1
20260510113415 67 191 1.7 3.5 0.00 0.00 0.00 88 1013.1
20260510112323 68 193 0.9 5.2 0.00 0.00 0.00 87 1013.2
20260510111333 68 179 1.7 5.2 0.00 0.00 0.00 87 1013.0
20260510105327 68 174 2.6 5.2 0.00 0.00 0.00 86 1013.1
20260510104324 68 188 2.6 6.1 0.00 0.00 0.00 87 1013.0
20260510103329 68 177 2.6 6.1 0.00 0.00 0.00 88 1012.8
20260510102414 68 167 2.6 5.2 0.00 0.00 0.00 89 1012.8
20260510101421 67 200 0.9 6.1 0.00 0.00 0.00 91 1012.9
20260510094352 67 185 0.0 0.0 0.00 0.00 0.00 88 1013.3
20260510093417 67 185 0.0 0.0 0.00 0.00 0.00 88 1013.3
20260510092423 68 185 0.0 0.0 0.00 0.00 0.00 87 1013.2
20260510091336 68 185 0.0 0.0 0.00 0.00 0.00 87 1013.2
20260510090400 69 185 0.0 0.0 0.00 0.00 0.00 86 1013.2
20260510085433 69 185 0.0 0.0 0.00 0.00 0.00 85 1013.3
20260510084352 70 185 0.0 0.0 0.00 0.00 0.00 85 1013.1
20260510083415 70 185 0.0 0.0 0.00 0.00 0.00 84 1013.1
20260510082335 71 185 0.0 0.0 0.00 0.00 0.00 84 1013.0
20260510081405 71 185 0.0 2.6 0.00 0.00 0.00 84 1013.0
20260510080335 71 191 0.9 4.3 0.00 0.00 0.00 83 1012.8
20260510075354 71 214 1.7 4.3 0.00 0.00 0.00 83 1012.9
20260510074413 72 202 1.7 5.2 0.00 0.00 0.00 83 1012.9
20260510073336 71 244 2.6 3.5 0.00 0.00 0.00 83 1012.9
20260510072400 72 202 1.7 4.3 0.00 0.00 0.00 83 1012.8
20260510071417 72 216 1.7 3.5 0.00 0.00 0.00 83 1012.9
20260510070333 72 217 0.9 4.3 0.00 0.00 0.00 83 1013.0
20260510065326 72 181 0.9 3.5 0.00 0.00 0.00 83 1012.9
20260510064338 72 191 0.9 2.6 0.00 0.00 0.00 83 1013.0
20260510063342 72 198 0.9 1.7 0.00 0.00 0.00 83 1012.9
20260510062326 73 198 0.9 2.6 0.00 0.00 0.00 82 1012.9
20260510061337 73 198 0.9 3.5 0.00 0.00 0.00 82 1013.1
20260510060323 73 194 0.0 3.5 0.00 0.00 0.00 81 1013.1
20260510055327 74 197 1.7 3.5 0.00 0.00 0.00 81 1013.0
20260510054341 73 177 0.9 4.3 0.00 0.00 0.00 83 1013.0
20260510053324 71 173 2.6 4.3 0.00 0.00 0.00 87 1012.9
20260510052335 69 167 0.0 1.7 0.00 0.00 0.00 88 1012.9
20260510051340 69 140 0.0 0.0 0.00 0.00 0.00 86 1012.8
20260510050327 69 140 0.0 0.0 0.00 0.00 0.00 86 1012.9
20260510045347 70 140 0.0 0.0 0.00 0.00 0.00 85 1012.9
20260510044354 70 140 0.0 0.0 0.00 0.00 0.00 85 1012.8
20260510043429 71 140 0.0 0.0 0.00 0.00 0.00 84 1012.8
20260510042356 71 140 0.0 0.0 0.00 0.00 0.00 82 1012.7
20260510041414 72 140 0.0 0.0 0.00 0.00 0.00 81 1012.6
20260510040324 72 140 0.0 0.0 0.00 0.00 0.00 81 1012.6
20260510035341 73 140 0.0 0.0 0.00 0.00 0.00 80 1012.4
20260510034412 74 140 0.0 0.0 0.00 0.00 0.00 78 1012.4
20260510033329 75 140 0.0 0.0 0.00 0.00 0.00 77 1012.2
20260510032348 76 140 0.0 0.0 0.00 0.00 0.00 75 1012.1
20260510031410 77 140 0.0 0.0 0.00 0.00 0.00 74 1012.1
20260510024402 79 140 0.0 2.6 0.00 0.00 0.00 71 1011.7
20260510023421 79 136 0.0 1.7 0.00 0.00 0.00 71 1011.7
20260510022341 79 157 1.7 5.2 0.00 0.00 0.00 70 1011.6
20260510021418 79 130 2.6 4.3 0.00 0.00 0.00 70 1011.6
20260510020336 79 113 0.9 3.5 0.00 0.00 0.00 68 1011.4
20260510015421 80 100 0.9 3.5 0.00 0.00 0.00 65 1011.3
20260510014351 80 153 0.9 3.5 0.00 0.00 0.00 62 1011.1
20260510013412 81 121 0.9 3.5 0.00 0.00 0.00 62 1010.9
20260510011336 82 136 0.9 2.6 0.00 0.00 0.00 62 1010.7
20260510010410 83 142 1.7 5.2 0.00 0.00 0.00 61 1010.5
20260510005331 84 83 1.7 6.1 0.00 0.00 0.00 61 1010.3
20260510004352 84 120 1.7 6.1 0.00 0.00 0.00 59 1010.2
20260510003422 85 140 2.6 7.0 0.00 0.00 0.00 56 1010.2
20260510002334 86 145 3.5 7.0 0.00 0.00 0.00 56 1010.0
20260510001409 86 136 2.6 5.2 0.00 0.00 0.00 57 1010.0
20260510000344 86 155 0.9 4.3 0.00 0.00 0.00 58 1009.9
20260509235349 86 127 2.6 6.1 0.00 0.00 0.00 58 1009.8
20260509234356 85 135 3.5 7.0 0.00 0.00 0.00 58 1009.8
20260509233327 85 62 4.3 9.6 0.00 0.00 0.00 57 1009.8
20260509232336 85 131 5.2 8.7 0.00 0.00 0.00 59 1009.8
20260509231350 86 122 3.5 11.3 0.00 0.00 0.00 60 1009.8
20260509230420 88 146 5.2 7.8 0.00 0.00 0.00 56 1009.7
20260509225330 88 98 3.5 7.8 0.00 0.00 0.00 55 1009.6
20260509224359 89 185 3.5 13.9 0.00 0.00 0.00 55 1009.7
20260509223408 90 139 1.7 4.3 0.00 0.00 0.00 51 1009.7
20260509222415 90 189 2.6 6.1 0.00 0.00 0.00 53 1009.6
20260509221338 90 195 1.7 7.0 0.00 0.00 0.00 51 1009.7
20260509215358 90 233 0.9 3.5 0.00 0.00 0.00 53 1009.7
20260509214421 90 150 2.6 5.2 0.00 0.00 0.00 54 1009.8
20260509212334 89 196 1.7 4.3 0.00 0.00 0.00 52 1009.9
20260509211410 90 188 2.6 4.3 0.00 0.00 0.00 52 1009.9
20260509210327 89 117 1.7 2.6 0.00 0.00 0.00 53 1010.1
20260509205400 88 257 0.0 0.9 0.00 0.00 0.00 52 1010.3
20260509204334 88 257 0.0 4.3 0.00 0.00 0.00 53 1010.5
20260509203402 88 112 1.7 3.5 0.00 0.00 0.00 54 1010.5
20260509202421 89 164 0.0 2.6 0.00 0.00 0.00 54 1010.7
20260509201338 89 243 2.6 6.1 0.00 0.00 0.00 53 1010.8
20260509200413 90 266 0.9 4.3 0.00 0.00 0.00 54 1010.8
20260509195342 89 260 1.7 7.0 0.00 0.00 0.00 52 1010.9
20260509194401 89 280 0.9 3.5 0.00 0.00 0.00 56 1011.1
20260509193329 88 287 0.9 4.3 0.00 0.00 0.00 56 1011.4
20260509191349 88 250 0.9 2.6 0.00 0.00 0.00 58 1011.9
20260509190414 87 225 0.9 7.0 0.00 0.00 0.00 63 1012.1
20260509185342 87 240 2.6 6.1 0.00 0.00 0.00 62 1012.0
20260509184417 87 269 3.5 9.6 0.00 0.00 0.00 62 1012.0
20260509183337 85 203 1.7 6.1 0.00 0.00 0.00 65 1012.0
20260509182343 85 248 1.7 6.1 0.00 0.00 0.00 64 1012.1
20260509181403 85 286 0.9 7.0 0.00 0.00 0.00 66 1012.4
20260509180329 85 161 0.9 3.5 0.00 0.00 0.00 65 1012.5
20260509175348 84 194 0.0 5.2 0.00 0.00 0.00 71 1012.7
20260509174422 85 123 0.9 2.6 0.00 0.00 0.00 67 1012.7
20260509173344 83 288 0.0 2.6 0.00 0.00 0.00 73 1012.8
20260509172403 83 227 0.9 3.5 0.00 0.00 0.00 70 1013.0
20260509171341 82 283 0.0 3.5 0.00 0.00 0.00 75 1013.0
20260509170336 82 203 2.6 6.1 0.00 0.00 0.00 71 1012.9
20260509165346 82 260 2.6 6.1 0.00 0.00 0.00 72 1012.9
20260509164419 81 168 0.9 3.5 0.00 0.00 0.00 76 1013.1
20260509163413 80 217 1.7 5.2 0.00 0.00 0.00 79 1013.2
20260509162426 79 271 2.6 6.1 0.00 0.00 0.00 81 1013.2
20260509161424 78 205 0.0 2.6 0.00 0.00 0.00 83 1013.4
20260509155356 77 182 0.9 4.3 0.00 0.00 0.00 84 1013.5
20260509154327 77 115 2.6 7.0 0.00 0.00 0.00 85 1013.4